User: anonymous   Login
Location: �chenoz-la-M�line
(47.6009°N, 6.1354°E)
Time: 02:46:55
(UTC+00:00)
Language:

ADEOS - Orbit

View from above orbital plane
View from above orbital plane
View from above satellite
View from above satellite

Ground track
Ground track

The orbit data is extracted from the following two-line orbital elements,

1 24277U 96046A   21102.48710606 -.00000034  00000-0  48020-5 0  9992
2 24277  98.9106  89.9377 0000916 159.2250 200.8969 14.29464190285335
Epoch (UTC): 12 April 2021 11:41:25
Eccentricity: 0.0000916
inclination: 98.9106°
perigee height: 793 km
apogee height: 794 km
right ascension of ascending node: 89.9377°
argument of perigee: 159.2250°
revolutions per day: 14.29464190
mean anomaly at epoch: 200.8969°
orbit number at epoch: 28533

The dashed part of the orbit path shows where the satellite is in the earth's shadow,  

DLR